OK2ZI Weather Reports


time (UTC)temp
C
wind
direction
speed
KPH
gust
KPH
rain 1hr
cm
rain 24hr
cm
rain mn
cm
humidity
%
barometer
mb
20260506165406 21 117 14.5 14.5 0.00 0.00 0.00 47 1001.0
20260506165011 21 106 11.3 11.3 0.00 0.00 0.00 47 1001.0
20260506164806 21 162 0.0 0.0 0.00 0.00 0.00 47 1001.0
20260506164606 21 144 12.9 12.9 0.00 0.00 0.00 46 1001.0
20260506164406 21 198 12.9 12.9 0.00 0.00 0.00 46 1002.0
20260506164212 21 132 11.3 11.3 0.00 0.00 0.00 46 1002.0
20260506164011 21 168 14.5 14.5 0.00 0.00 0.00 46 1002.0
20260506163806 22 168 9.7 9.7 0.00 0.00 0.00 46 1002.0
20260506163606 22 210 14.5 14.5 0.00 0.00 0.00 46 1002.0
20260506163206 22 180 22.5 22.5 0.00 0.00 0.00 46 1002.0
20260506163015 22 126 8.0 8.0 0.00 0.00 0.00 46 1002.0
20260506162607 22 192 24.1 24.1 0.00 0.00 0.00 46 1002.0
20260506162407 22 101 14.5 14.5 0.00 0.00 0.00 45 1002.0
20260506162207 22 198 12.9 12.9 0.00 0.00 0.00 45 1002.0
20260506162011 22 186 25.7 29.0 0.00 0.00 0.00 45 1002.0
20260506161807 22 192 14.5 14.5 0.00 0.00 0.00 45 1002.0
20260506161607 22 138 12.9 12.9 0.00 0.00 0.00 45 1002.0
20260506161407 22 140 22.5 22.5 0.00 0.00 0.00 44 1002.0
20260506161206 22 192 24.1 24.1 0.00 0.00 0.00 44 1002.0
20260506161012 22 152 12.9 12.9 0.00 0.00 0.00 44 1002.0
20260506160807 22 157 12.9 12.9 0.00 0.00 0.00 43 1002.0
20260506160406 23 210 32.2 35.4 0.00 0.00 0.00 42 1002.0
20260506160018 23 138 11.3 11.3 0.00 0.00 0.00 41 1002.0
20260506155806 23 138 14.5 14.5 0.00 0.00 0.00 41 1002.0
20260506155606 22 124 11.3 11.3 0.00 0.00 0.00 41 1002.0
20260506155407 22 178 14.5 14.5 0.00 0.00 0.00 42 1002.0
20260506155206 22 205 27.4 29.0 0.00 0.00 0.00 42 1002.0
20260506155011 23 162 12.9 12.9 0.00 0.00 0.00 42 1002.0
20260506154607 23 210 12.9 12.9 0.00 0.00 0.00 41 1002.0
20260506154406 22 204 24.1 27.4 0.00 0.00 0.00 41 1002.0
20260506154009 22 162 12.9 12.9 0.00 0.00 0.00 40 1002.0
20260506153807 22 126 12.9 12.9 0.00 0.00 0.00 41 1002.0
20260506153607 22 147 8.0 8.0 0.00 0.00 0.00 42 1002.0
20260506153404 22 174 22.5 22.5 0.00 0.00 0.00 43 1002.0
20260506153015 22 192 29.0 30.6 0.00 0.00 0.00 42 1002.0
20260506152407 22 104 0.0 0.0 0.00 0.00 0.00 42 1002.0
20260506152212 22 113 12.9 12.9 0.00 0.00 0.00 42 1002.0
20260506152008 22 132 8.0 8.0 0.00 0.00 0.00 43 1003.0
20260506151807 22 114 12.9 12.9 0.00 0.00 0.00 43 1003.0
20260506151607 22 147 0.0 0.0 0.00 0.00 0.00 42 1003.0
20260506151405 22 105 29.0 30.6 0.00 0.00 0.00 41 1003.0
20260506151205 24 246 24.1 27.4 0.00 0.00 0.00 40 1003.0
20260506150806 23 132 14.5 14.5 0.00 0.00 0.00 39 1003.0
20260506150405 23 173 22.5 22.5 0.00 0.00 0.00 40 1003.0
20260506150206 22 106 12.9 12.9 0.00 0.00 0.00 40 1003.0
20260506150016 22 147 8.0 8.0 0.00 0.00 0.00 41 1003.0
20260506145806 22 198 14.5 14.5 0.00 0.00 0.00 41 1003.0
20260506145606 23 186 24.1 27.4 0.00 0.00 0.00 40 1003.0
20260506145406 23 221 12.9 12.9 0.00 0.00 0.00 41 1003.0
20260506145011 23 184 12.9 12.9 0.00 0.00 0.00 40 1003.0
20260506144807 23 162 22.5 22.5 0.00 0.00 0.00 39 1003.0
20260506144607 24 202 22.5 22.5 0.00 0.00 0.00 37 1003.0
20260506144207 23 191 22.5 22.5 0.00 0.00 0.00 37 1003.0
20260506144011 23 156 11.3 11.3 0.00 0.00 0.00 38 1003.0
20260506143810 23 132 11.3 11.3 0.00 0.00 0.00 39 1003.0
20260506143606 22 168 22.5 22.5 0.00 0.00 0.00 40 1003.0
20260506143407 22 113 12.9 12.9 0.00 0.00 0.00 41 1003.0
20260506143206 22 132 11.3 11.3 0.00 0.00 0.00 42 1003.0
20260506143015 22 68 29.0 30.6 0.00 0.00 0.00 42 1003.0
20260506142807 22 246 25.7 29.0 0.00 0.00 0.00 42 1003.0
20260506142607 22 162 12.9 12.9 0.00 0.00 0.00 43 1003.0
20260506142407 22 108 14.5 14.5 0.00 0.00 0.00 43 1003.0
20260506142205 22 156 12.9 12.9 0.00 0.00 0.00 44 1003.0
20260506142012 22 107 14.5 14.5 0.00 0.00 0.00 44 1003.0
20260506141807 22 180 22.5 22.5 0.00 0.00 0.00 43 1003.0
20260506141606 22 114 12.9 12.9 0.00 0.00 0.00 43 1003.0
20260506141207 22 146 12.9 12.9 0.00 0.00 0.00 43 1003.0
20260506141010 22 150 9.7 9.7 0.00 0.00 0.00 43 1003.0
20260506140209 24 72 9.7 9.7 0.00 0.00 0.00 40 1003.0
20260506140020 24 126 22.5 22.5 0.00 0.00 0.00 40 1003.0
20260506135606 23 174 24.1 24.1 0.00 0.00 0.00 41 1003.0
20260506135011 23 197 35.4 37.0 0.00 0.00 0.00 43 1003.0
20260506134806 23 156 11.3 11.3 0.00 0.00 0.00 41 1003.0
20260506134607 25 112 12.9 12.9 0.00 0.00 0.00 39 1003.0
20260506134407 25 166 11.3 11.3 0.00 0.00 0.00 39 1003.0
20260506134207 25 211 22.5 22.5 0.00 0.00 0.00 39 1003.0
20260506134011 25 174 24.1 27.4 0.00 0.00 0.00 39 1003.0
20260506133806 25 174 22.5 22.5 0.00 0.00 0.00 39 1003.0
20260506133606 24 146 29.0 30.6 0.00 0.00 0.00 39 1003.0
20260506133406 24 202 25.7 29.0 0.00 0.00 0.00 39 1003.0
20260506133206 24 90 14.5 14.5 0.00 0.00 0.00 40 1003.0
20260506133015 24 157 22.5 22.5 0.00 0.00 0.00 40 1003.0
20260506132807 25 210 25.7 27.4 0.00 0.00 0.00 40 1003.0
20260506132607 25 162 38.6 45.1 0.00 0.00 0.00 41 1003.0
20260506132408 25 192 29.0 30.6 0.00 0.00 0.00 41 1003.0
20260506132207 24 150 11.3 11.3 0.00 0.00 0.00 41 1003.0
20260506131807 23 198 29.0 30.6 0.00 0.00 0.00 42 1003.0
20260506131605 23 206 14.5 14.5 0.00 0.00 0.00 43 1003.0
20260506131406 23 145 14.5 14.5 0.00 0.00 0.00 45 1003.0
20260506131206 23 166 29.0 32.2 0.00 0.00 0.00 44 1003.0
20260506131011 23 174 11.3 11.3 0.00 0.00 0.00 43 1004.0
20260506130806 22 162 22.5 22.5 0.00 0.00 0.00 44 1004.0
20260506130607 22 162 14.5 14.5 0.00 0.00 0.00 45 1004.0
20260506130407 22 168 14.5 14.5 0.00 0.00 0.00 46 1004.0
20260506130207 22 174 25.7 27.4 0.00 0.00 0.00 45 1004.0
20260506130021 22 168 22.5 22.5 0.00 0.00 0.00 45 1004.0
20260506125805 22 185 11.3 11.3 0.00 0.00 0.00 44 1004.0
20260506125607 22 162 9.7 9.7 0.00 0.00 0.00 44 1004.0
20260506125406 22 209 0.0 0.0 0.00 0.00 0.00 46 1004.0
20260506125206 22 192 35.4 38.6 0.00 0.00 0.00 46 1004.0
20260506124807 21 207 12.9 12.9 0.00 0.00 0.00 46 1004.0
20260506124607 21 120 0.0 0.0 0.00 0.00 0.00 47 1004.0
20260506124011 21 196 27.4 29.0 0.00 0.00 0.00 47 1004.0
20260506123806 21 114 9.7 9.7 0.00 0.00 0.00 47 1004.0
20260506123607 22 189 9.7 9.7 0.00 0.00 0.00 47 1004.0
20260506123207 22 196 29.0 32.2 0.00 0.00 0.00 44 1004.0
20260506123017 22 192 25.7 27.4 0.00 0.00 0.00 43 1004.0
20260506122807 22 192 22.5 22.5 0.00 0.00 0.00 43 1004.0
20260506122407 21 168 8.0 8.0 0.00 0.00 0.00 45 1004.0
20260506122011 21 184 0.0 0.0 0.00 0.00 0.00 48 1004.0
20260506121807 21 184 27.4 29.0 0.00 0.00 0.00 48 1004.0
20260506121607 21 186 22.5 22.5 0.00 0.00 0.00 46 1004.0
20260506121407 22 204 22.5 22.5 0.00 0.00 0.00 45 1004.0
20260506121013 22 204 14.5 14.5 0.00 0.00 0.00 44 1004.0
20260506120607 22 195 14.5 14.5 0.00 0.00 0.00 44 1004.0
20260506120205 22 198 24.1 24.1 0.00 0.00 0.00 44 1005.0
20260506120018 22 174 9.7 9.7 0.00 0.00 0.00 44 1004.0
20260506115807 22 167 11.3 11.3 0.00 0.00 0.00 43 1004.0
20260506115607 22 180 24.1 24.1 0.00 0.00 0.00 43 1004.0
20260506115407 22 198 14.5 14.5 0.00 0.00 0.00 42 1004.0
20260506115207 22 120 12.9 12.9 0.00 0.00 0.00 42 1004.0
20260506115011 22 186 14.5 14.5 0.00 0.00 0.00 43 1005.0
20260506114807 22 198 33.8 35.4 0.00 0.00 0.00 43 1005.0
20260506114606 23 186 32.2 33.8 0.00 0.00 0.00 42 1005.0
20260506114407 23 184 24.1 27.4 0.00 0.00 0.00 41 1005.0
20260506114207 23 144 27.4 29.0 0.00 0.00 0.00 40 1005.0
20260506114012 23 224 14.5 14.5 0.00 0.00 0.00 40 1004.0
20260506113807 23 239 27.4 29.0 0.00 0.00 0.00 39 1004.0
20260506113606 22 168 0.0 0.0 0.00 0.00 0.00 41 1004.0
20260506113407 22 126 12.9 12.9 0.00 0.00 0.00 42 1004.0
20260506113207 22 201 8.0 8.0 0.00 0.00 0.00 44 1004.0
20260506113015 22 192 32.2 35.4 0.00 0.00 0.00 43 1005.0
20260506112606 22 180 11.3 11.3 0.00 0.00 0.00 43 1005.0
20260506112407 21 162 12.9 12.9 0.00 0.00 0.00 43 1005.0
20260506112206 21 128 8.0 8.0 0.00 0.00 0.00 42 1005.0
20260506112012 21 208 14.5 14.5 0.00 0.00 0.00 44 1005.0
20260506111806 21 174 14.5 14.5 0.00 0.00 0.00 44 1005.0
20260506111607 22 180 14.5 14.5 0.00 0.00 0.00 42 1005.0
20260506111407 22 186 11.3 11.3 0.00 0.00 0.00 42 1005.0
20260506111206 22 192 14.5 14.5 0.00 0.00 0.00 41 1005.0
20260506111011 22 192 11.3 11.3 0.00 0.00 0.00 40 1005.0
20260506110807 22 156 8.0 8.0 0.00 0.00 0.00 41 1005.0
20260506110606 22 183 24.1 24.1 0.00 0.00 0.00 41 1005.0
20260506110407 23 167 11.3 11.3 0.00 0.00 0.00 40 1005.0
20260506110207 23 207 22.5 22.5 0.00 0.00 0.00 39 1005.0
20260506110018 24 134 12.9 12.9 0.00 0.00 0.00 38 1005.0
20260506105806 24 162 8.0 8.0 0.00 0.00 0.00 39 1005.0
20260506105607 24 192 11.3 11.3 0.00 0.00 0.00 40 1005.0
20260506105406 23 196 22.5 22.5 0.00 0.00 0.00 41 1005.0
20260506105012 22 192 11.3 11.3 0.00 0.00 0.00 40 1005.0
20260506104607 22 186 11.3 11.3 0.00 0.00 0.00 44 1005.0
20260506104407 22 168 22.5 22.5 0.00 0.00 0.00 43 1005.0
20260506104206 22 144 0.0 0.0 0.00 0.00 0.00 43 1005.0
20260506104013 22 192 12.9 12.9 0.00 0.00 0.00 43 1005.0
20260506103807 22 206 30.6 32.2 0.00 0.00 0.00 44 1005.0
20260506103407 22 183 35.4 38.6 0.00 0.00 0.00 44 1005.0
20260506103205 22 174 12.9 12.9 0.00 0.00 0.00 45 1005.0
20260506103014 22 179 24.1 27.4 0.00 0.00 0.00 46 1005.0
20260506102807 22 211 45.1 45.1 0.00 0.00 0.00 43 1005.0
20260506102607 22 184 22.5 22.5 0.00 0.00 0.00 45 1005.0
20260506102406 22 184 14.5 14.5 0.00 0.00 0.00 44 1005.0
20260506102012 22 150 0.0 0.0 0.00 0.00 0.00 44 1005.0
20260506101808 22 90 11.3 11.3 0.00 0.00 0.00 44 1005.0
20260506101611 22 167 12.9 12.9 0.00 0.00 0.00 45 1005.0
20260506101409 22 153 9.7 9.7 0.00 0.00 0.00 46 1005.0
20260506101207 21 190 14.5 14.5 0.00 0.00 0.00 47 1005.0
20260506100606 21 174 35.4 37.0 0.00 0.00 0.00 46 1005.0
20260506100207 22 184 41.8 48.3 0.00 0.00 0.00 44 1005.0
20260506100021 22 173 8.0 8.0 0.00 0.00 0.00 44 1005.0
20260506095807 22 186 41.8 48.3 0.00 0.00 0.00 46 1005.0
20260506095407 21 192 22.5 22.5 0.00 0.00 0.00 47 1005.0
20260506095207 22 180 40.2 40.2 0.00 0.00 0.00 47 1005.0
20260506095011 22 192 29.0 30.6 0.00 0.00 0.00 43 1005.0
20260506094807 22 210 12.9 12.9 0.00 0.00 0.00 44 1005.0
20260506094406 21 186 11.3 11.3 0.00 0.00 0.00 47 1005.0
20260506094206 21 196 40.2 40.2 0.00 0.00 0.00 48 1005.0
20260506094012 21 180 0.0 0.0 0.00 0.00 0.00 50 1005.0
20260506093606 21 168 35.4 38.6 0.00 0.00 0.00 47 1005.0
20260506093406 21 178 25.7 27.4 0.00 0.00 0.00 48 1005.0
20260506093211 22 180 35.4 37.0 0.00 0.00 0.00 47 1005.0
20260506093016 21 179 9.7 9.7 0.00 0.00 0.00 50 1005.0
20260506092807 21 177 22.5 22.5 0.00 0.00 0.00 48 1005.0
20260506092606 21 189 22.5 22.5 0.00 0.00 0.00 49 1005.0
20260506092407 21 168 12.9 12.9 0.00 0.00 0.00 47 1005.0
20260506092207 21 138 8.0 8.0 0.00 0.00 0.00 49 1005.0
20260506092011 21 184 22.5 22.5 0.00 0.00 0.00 49 1005.0
20260506091807 20 179 8.0 8.0 0.00 0.00 0.00 51 1005.0
20260506091407 20 185 24.1 27.4 0.00 0.00 0.00 52 1005.0
20260506091207 20 186 30.6 32.2 0.00 0.00 0.00 51 1005.0
20260506091011 20 180 8.0 8.0 0.00 0.00 0.00 53 1005.0
20260506090807 20 179 40.2 45.1 0.00 0.00 0.00 52 1005.0
20260506090712 20 174 22.5 22.5 0.00 0.00 0.00 55 1005.0
20260506090411 20 172 14.5 14.5 0.00 0.00 0.00 54 1006.0
20260506090219 20 174 0.0 0.0 0.00 0.00 0.00 53 1006.0
20260506090031 20 192 12.9 12.9 0.00 0.00 0.00 53 1006.0
20260506085813 20 156 11.3 11.3 0.00 0.00 0.00 53 1006.0
20260506085507 21 198 35.4 37.0 0.00 0.00 0.00 50 1005.0
20260506085208 21 192 11.3 11.3 0.00 0.00 0.00 51 1005.0
20260506085012 20 191 12.9 12.9 0.00 0.00 0.00 53 1005.0
20260506084807 20 198 29.0 30.6 0.00 0.00 0.00 51 1005.0
20260506084622 20 198 14.5 14.5 0.00 0.00 0.00 53 1005.0
20260506084207 20 174 35.4 38.6 0.00 0.00 0.00 51 1005.0
20260506084013 21 102 9.7 9.7 0.00 0.00 0.00 49 1005.0
20260506083807 21 126 8.0 8.0 0.00 0.00 0.00 50 1005.0
20260506083608 21 189 27.4 29.0 0.00 0.00 0.00 50 1005.0
20260506083424 21 156 9.7 9.7 0.00 0.00 0.00 52 1006.0
20260506083023 20 146 9.7 9.7 0.00 0.00 0.00 53 1006.0
20260506082613 20 185 0.0 0.0 0.00 0.00 0.00 53 1006.0
20260506082407 20 180 22.5 22.5 0.00 0.00 0.00 54 1006.0
20260506082210 20 204 24.1 24.1 0.00 0.00 0.00 55 1006.0
20260506082012 20 197 29.0 30.6 0.00 0.00 0.00 52 1006.0
20260506081807 19 185 27.4 29.0 0.00 0.00 0.00 53 1006.0
20260506081606 19 168 12.9 12.9 0.00 0.00 0.00 59 1006.0
20260506081207 19 190 29.0 30.6 0.00 0.00 0.00 55 1006.0
20260506081013 19 192 14.5 14.5 0.00 0.00 0.00 56 1006.0
20260506080807 19 186 22.5 22.5 0.00 0.00 0.00 56 1006.0
20260506080606 18 198 0.0 0.0 0.00 0.00 0.00 59 1006.0
20260506080205 18 174 11.3 11.3 0.00 0.00 0.00 61 1005.0
20260506073409 18 210 24.1 24.1 0.00 0.00 0.00 59 1006.0
20260506073207 17 216 22.5 22.5 0.00 0.00 0.00 60 1006.0
20260506073015 17 168 22.5 22.5 0.00 0.00 0.00 59 1006.0
20260506072807 17 174 22.5 22.5 0.00 0.00 0.00 63 1006.0
20260506072607 17 180 14.5 14.5 0.00 0.00 0.00 64 1006.0
20260506072408 17 186 25.7 29.0 0.00 0.00 0.00 63 1006.0
20260506072207 18 180 37.0 40.2 0.00 0.00 0.00 61 1006.0
20260506072011 17 185 24.1 24.1 0.00 0.00 0.00 63 1006.0
20260506071807 17 180 12.9 12.9 0.00 0.00 0.00 64 1006.0
20260506071606 17 186 14.5 14.5 0.00 0.00 0.00 63 1006.0
20260506071406 17 192 22.5 22.5 0.00 0.00 0.00 66 1006.0
20260506071205 17 186 22.5 22.5 0.00 0.00 0.00 64 1006.0
20260506071009 17 180 30.6 32.2 0.00 0.00 0.00 65 1006.0
20260506070805 17 190 29.0 30.6 0.00 0.00 0.00 65 1006.0
20260506070605 17 186 32.2 35.4 0.00 0.00 0.00 64 1006.0
20260506070407 17 178 12.9 12.9 0.00 0.00 0.00 63 1006.0
20260506070206 17 168 14.5 14.5 0.00 0.00 0.00 64 1006.0
20260506062407 16 214 22.5 22.5 0.00 0.00 0.00 71 1006.0
20260506062205 16 180 22.5 22.5 0.00 0.00 0.00 69 1006.0
20260506062012 16 186 9.7 9.7 0.00 0.00 0.00 71 1006.0
20260506061807 16 180 0.0 0.0 0.00 0.00 0.00 70 1006.0
20260506061405 16 174 0.0 0.0 0.00 0.00 0.00 72 1006.0
20260506061011 15 186 12.9 12.9 0.00 0.00 0.00 73 1006.0
20260506060805 15 178 9.7 9.7 0.00 0.00 0.00 72 1006.0
20260506060607 15 174 12.9 12.9 0.00 0.00 0.00 74 1006.0
20260506060405 15 173 24.1 24.1 0.00 0.00 0.00 74 1006.0
20260506051407 13 186 14.5 14.5 0.00 0.00 0.00 84 1006.0
20260506051207 12 174 14.5 14.5 0.00 0.00 0.00 83 1006.0
20260506051011 12 179 14.5 14.5 0.00 0.00 0.00 86 1006.0
20260506050807 12 192 11.3 11.3 0.00 0.00 0.00 87 1006.0
20260506050407 12 192 12.9 12.9 0.00 0.00 0.00 86 1005.0
20260506050207 12 174 14.5 14.5 0.00 0.00 0.00 85 1005.0
20260506045012 11 286 9.7 9.7 0.00 0.00 0.00 87 1005.0
20260506044807 11 287 9.7 9.7 0.00 0.00 0.00 88 1005.0
20260506044607 11 287 0.0 0.0 0.00 0.00 0.00 88 1005.0
20260506044205 11 287 0.0 0.0 0.00 0.00 0.00 87 1005.0
20260506043807 11 287 0.0 0.0 0.00 0.00 0.00 89 1005.0
20260506043606 11 287 0.0 0.0 0.00 0.00 0.00 89 1005.0
20260506043407 11 287 0.0 0.0 0.00 0.00 0.00 88 1005.0
20260506043015 10 287 0.0 0.0 0.00 0.00 0.00 90 1005.0
20260506042807 10 287 0.0 0.0 0.00 0.00 0.00 88 1005.0
20260506042406 10 287 8.0 8.0 0.00 0.00 0.00 89 1005.0
20260506042206 9 288 9.7 9.7 0.00 0.00 0.00 91 1005.0
20260506042010 9 288 9.7 9.7 0.00 0.00 0.00 93 1005.0
20260506041807 8 288 0.0 0.0 0.00 0.00 0.00 94 1005.0
20260506041607 8 288 0.0 0.0 0.00 0.00 0.00 94 1005.0
20260506041406 8 288 0.0 0.0 0.00 0.00 0.00 95 1005.0
20260506041206 8 288 0.0 0.0 0.00 0.00 0.00 96 1005.0
20260506041008 8 288 0.0 0.0 0.00 0.00 0.00 97 1005.0
20260506040807 7 288 0.0 0.0 0.00 0.00 0.00 97 1005.0
20260506040407 7 288 0.0 0.0 0.00 0.00 0.00 96 1005.0
20260506040207 7 288 0.0 0.0 0.00 0.00 0.00 97 1005.0
20260506040019 7 288 0.0 0.0 0.00 0.00 0.00 97 1005.0
20260506035806 7 288 0.0 0.0 0.00 0.00 0.00 96 1005.0
20260506035606 7 288 0.0 0.0 0.00 0.00 0.00 98 1005.0
20260506035407 7 288 9.7 9.7 0.00 0.00 0.00 97 1005.0
20260506034806 7 288 0.0 0.0 0.00 0.00 0.00 98 1005.0
20260506034606 7 288 0.0 0.0 0.00 0.00 0.00 98 1005.0
20260506034406 7 288 0.0 0.0 0.00 0.00 0.00 98 1005.0
20260506034207 7 288 0.0 0.0 0.00 0.00 0.00 98 1005.0
20260506034011 7 288 0.0 0.0 0.00 0.00 0.00 98 1005.0
20260506033806 7 288 0.0 0.0 0.00 0.00 0.00 98 1005.0
20260506033606 7 288 0.0 0.0 0.00 0.00 0.00 98 1005.0
20260506033406 7 288 0.0 0.0 0.00 0.00 0.00 97 1004.0
20260506033207 7 288 0.0 0.0 0.00 0.00 0.00 97 1004.0
20260506033014 7 288 0.0 0.0 0.00 0.00 0.00 97 1005.0
20260506032807 7 288 0.0 0.0 0.00 0.00 0.00 97 1005.0
20260506032605 7 288 0.0 0.0 0.00 0.00 0.00 97 1005.0
20260506032206 7 288 0.0 0.0 0.00 0.00 0.00 96 1005.0
20260506032011 7 288 8.0 8.0 0.00 0.00 0.00 96 1005.0
20260506031807 7 288 8.0 8.0 0.00 0.00 0.00 96 1005.0
20260506031606 7 288 0.0 0.0 0.00 0.00 0.00 96 1005.0
20260506031407 7 288 8.0 8.0 0.00 0.00 0.00 96 1005.0
20260506031206 7 288 0.0 0.0 0.00 0.00 0.00 96 1005.0
20260506031010 7 288 0.0 0.0 0.00 0.00 0.00 96 1005.0
20260506030806 7 288 0.0 0.0 0.00 0.00 0.00 96 1005.0
20260506030407 7 288 0.0 0.0 0.00 0.00 0.00 96 1005.0
20260506030207 7 288 0.0 0.0 0.00 0.00 0.00 96 1005.0
20260506030019 7 288 8.0 8.0 0.00 0.00 0.00 96 1005.0
20260506025806 7 288 0.0 0.0 0.00 0.00 0.00 95 1005.0
20260506025606 7 288 9.7 9.7 0.00 0.00 0.00 95 1005.0
20260506025407 7 288 12.9 12.9 0.00 0.00 0.00 95 1004.0
20260506025206 7 288 8.0 8.0 0.00 0.00 0.00 94 1004.0
20260506025010 7 288 11.3 11.3 0.00 0.00 0.00 93 1005.0
20260506024806 8 288 9.7 9.7 0.00 0.00 0.00 93 1005.0
20260506024611 8 288 11.3 11.3 0.00 0.00 0.00 95 1005.0
20260506024406 8 288 9.7 9.7 0.00 0.00 0.00 94 1004.0
20260506024206 8 288 12.9 12.9 0.00 0.00 0.00 94 1004.0
20260506023806 8 288 9.7 9.7 0.00 0.00 0.00 94 1004.0
20260506023606 8 288 11.3 11.3 0.00 0.00 0.00 93 1004.0
20260506023406 8 288 8.0 8.0 0.00 0.00 0.00 92 1005.0
20260506023206 8 288 0.0 0.0 0.00 0.00 0.00 90 1005.0
20260506023013 8 288 0.0 0.0 0.00 0.00 0.00 90 1005.0
20260506022806 9 288 11.3 11.3 0.00 0.00 0.00 91 1005.0
20260506022206 10 288 0.0 0.0 0.00 0.00 0.00 91 1004.0
20260506022010 10 288 0.0 0.0 0.00 0.00 0.00 91 1005.0
20260506021807 10 288 0.0 0.0 0.00 0.00 0.00 93 1005.0
20260506021607 10 288 0.0 0.0 0.00 0.00 0.00 93 1005.0
20260506021206 11 288 0.0 0.0 0.00 0.00 0.00 91 1005.0
20260506021011 11 288 0.0 0.0 0.00 0.00 0.00 90 1005.0
20260506020806 11 288 0.0 0.0 0.00 0.00 0.00 91 1005.0
20260506020606 11 288 0.0 0.0 0.00 0.00 0.00 91 1005.0
20260506020022 11 288 0.0 0.0 0.00 0.00 0.00 89 1004.0
20260506015406 11 288 0.0 0.0 0.00 0.00 0.00 89 1005.0
20260506015206 11 288 0.0 0.0 0.00 0.00 0.00 89 1005.0
20260506015010 11 288 0.0 0.0 0.00 0.00 0.00 88 1004.0
20260506014807 12 288 0.0 0.0 0.00 0.00 0.00 87 1004.0
20260506014606 12 288 9.7 9.7 0.00 0.00 0.00 87 1004.0
20260506014406 12 288 11.3 11.3 0.00 0.00 0.00 87 1004.0
20260506014207 12 288 12.9 12.9 0.00 0.00 0.00 86 1004.0
20260506014011 12 291 12.9 12.9 0.00 0.00 0.00 86 1004.0
20260506013807 12 294 14.5 14.5 0.00 0.00 0.00 85 1004.0
20260506013606 12 294 14.5 14.5 0.00 0.00 0.00 85 1004.0
20260506013015 13 294 12.9 12.9 0.00 0.00 0.00 83 1004.0
20260506012807 13 298 14.5 14.5 0.00 0.00 0.00 83 1004.0
20260506012607 13 258 14.5 14.5 0.00 0.00 0.00 82 1004.0
20260506012406 13 270 22.5 22.5 0.00 0.00 0.00 81 1004.0
20260506012206 13 300 22.5 22.5 0.00 0.00 0.00 81 1004.0
20260506012011 13 292 29.0 30.6 0.00 0.00 0.00 81 1004.0
20260506011607 13 288 12.9 12.9 0.00 0.00 0.00 81 1004.0
20260506011407 13 274 14.5 14.5 0.00 0.00 0.00 81 1004.0
20260506011207 13 279 24.1 24.1 0.00 0.00 0.00 81 1004.0
20260506011011 13 286 25.7 27.4 0.00 0.00 0.00 81 1004.0
20260506010806 13 288 12.9 12.9 0.00 0.00 0.00 80 1004.0
20260506010406 13 294 51.5 54.7 0.00 0.00 0.00 79 1004.0
20260506010020 13 300 37.0 40.2 0.00 0.00 0.00 78 1004.0
20260506005806 14 288 40.2 40.2 0.00 0.00 0.00 77 1004.0
20260506005405 14 288 30.6 32.2 0.00 0.00 0.00 77 1003.0
20260506005207 14 6 40.2 45.1 0.00 0.00 0.00 77 1003.0
20260506005010 14 300 37.0 40.2 0.00 0.00 0.00 77 1003.0
20260506004806 13 270 49.9 51.5 0.00 0.00 0.00 77 1003.0
20260506004606 13 294 35.4 38.6 0.00 0.00 0.00 77 1003.0
20260506004206 13 282 32.2 33.8 0.00 0.00 0.00 77 1003.0
20260506004010 13 300 35.4 37.0 0.00 0.00 0.00 76 1003.0
20260506003807 13 300 24.1 24.1 0.00 0.00 0.00 77 1003.0
20260506003606 14 318 35.4 37.0 0.00 0.00 0.00 76 1003.0
20260506003406 14 294 48.3 49.9 0.00 0.00 0.00 76 1003.0
20260506003207 14 300 54.7 66.0 0.00 0.00 0.00 76 1003.0
20260506003015 14 279 64.4 70.8 0.00 0.00 0.00 75 1003.0
20260506002807 14 262 75.6 85.3 0.00 0.00 0.00 75 1003.0
20260506002605 14 280 62.8 70.8 0.00 0.00 0.00 76 1003.0
20260506002406 14 306 69.2 74.0 0.00 0.00 0.00 75 1003.0
20260506002206 14 287 69.2 78.9 0.00 0.00 0.00 75 1003.0
20260506002012 14 287 64.4 69.2 0.00 0.00 0.00 75 1003.0
20260506001807 14 288 67.6 75.6 0.00 0.00 0.00 74 1003.0
20260506001406 14 282 61.2 62.8 0.00 0.00 0.00 75 1003.0
20260506001011 14 258 72.4 75.6 0.00 0.00 0.00 75 1003.0
20260506000607 13 324 53.1 61.2 0.00 0.00 0.00 75 1003.0
20260506000408 13 318 62.8 69.2 0.00 0.00 0.00 75 1004.0
20260506000207 13 294 49.9 49.9 0.00 0.00 0.00 75 1004.0
20260505235807 13 276 35.4 38.6 0.00 0.00 0.00 77 1004.0
20260505235605 13 282 25.7 27.4 0.00 0.00 0.00 76 1004.0
20260505235406 13 269 29.0 30.6 0.00 0.00 0.00 74 1004.0
20260505235206 13 286 12.9 12.9 0.00 0.00 0.00 75 1004.0
20260505235011 13 294 9.7 9.7 0.00 0.00 0.00 75 1004.0
20260505234807 13 294 9.7 9.7 0.00 0.00 0.00 74 1004.0
20260505234606 13 294 0.0 0.0 0.00 0.00 0.00 74 1004.0
20260505234406 13 294 0.0 0.0 0.00 0.00 0.00 75 1004.0
20260505234206 13 294 0.0 0.0 0.00 0.00 0.00 74 1004.0
20260505234010 13 294 12.9 12.9 0.00 0.00 0.00 73 1004.0
20260505233807 13 306 9.7 9.7 0.00 0.00 0.00 73 1004.0
20260505233606 13 306 9.7 9.7 0.00 0.00 0.00 73 1004.0
20260505233407 13 306 8.0 8.0 0.00 0.00 0.00 72 1003.0
20260505233206 13 306 11.3 11.3 0.00 0.00 0.00 72 1003.0
20260505233015 13 306 14.5 14.5 0.00 0.00 0.00 72 1003.0
20260505232806 12 318 12.9 12.9 0.00 0.00 0.00 71 1003.0
20260505232606 12 332 12.9 12.9 0.00 0.00 0.00 71 1003.0
20260505232410 12 294 14.5 14.5 0.00 0.00 0.00 72 1003.0
20260505232207 11 294 24.1 24.1 0.00 0.00 0.00 74 1003.0
20260505232010 12 246 0.0 0.0 0.00 0.00 0.00 78 1003.0
20260505231807 12 246 0.0 0.0 0.00 0.00 0.00 78 1003.0
20260505231606 12 246 0.0 0.0 0.00 0.00 0.00 78 1003.0
20260505231206 12 246 9.7 9.7 0.00 0.00 0.00 76 1003.0
20260505230806 12 246 0.0 0.0 0.00 0.00 0.00 76 1003.0
20260505230607 12 246 0.0 0.0 0.00 0.00 0.00 76 1003.0
20260505230206 12 246 0.0 0.0 0.00 0.00 0.00 75 1003.0
20260505230019 12 246 0.0 0.0 0.00 0.00 0.00 76 1003.0
20260505225807 12 246 0.0 0.0 0.00 0.00 0.00 75 1003.0
20260505225607 12 246 0.0 0.0 0.00 0.00 0.00 75 1003.0
20260505225406 12 228 12.9 12.9 0.00 0.00 0.00 73 1003.0
20260505225206 12 162 0.0 0.0 0.00 0.00 0.00 73 1003.0
20260505225009 12 162 0.0 0.0 0.00 0.00 0.00 73 1003.0
20260505224806 12 162 0.0 0.0 0.00 0.00 0.00 72 1003.0
20260505224206 13 162 8.0 8.0 0.00 0.00 0.00 72 1003.0
20260505223806 13 162 9.7 9.7 0.00 0.00 0.00 70 1003.0
20260505223406 13 162 11.3 11.3 0.00 0.00 0.00 69 1003.0
20260505223206 13 162 11.3 11.3 0.00 0.00 0.00 68 1003.0
20260505223015 13 162 9.7 9.7 0.00 0.00 0.00 68 1003.0
20260505222806 13 138 14.5 14.5 0.00 0.00 0.00 67 1003.0
20260505222607 13 108 11.3 11.3 0.00 0.00 0.00 67 1003.0
20260505222406 13 108 0.0 0.0 0.00 0.00 0.00 67 1003.0
20260505222206 13 108 0.0 0.0 0.00 0.00 0.00 67 1003.0
20260505222012 13 108 0.0 0.0 0.00 0.00 0.00 67 1003.0
20260505221806 13 108 0.0 0.0 0.00 0.00 0.00 67 1003.0
20260505221606 13 162 0.0 0.0 0.00 0.00 0.00 67 1003.0
20260505221406 13 162 0.0 0.0 0.00 0.00 0.00 67 1003.0
20260505221207 13 174 8.0 8.0 0.00 0.00 0.00 67 1003.0
20260505221012 13 174 0.0 0.0 0.00 0.00 0.00 68 1003.0
20260505220806 13 174 0.0 0.0 0.00 0.00 0.00 67 1003.0
20260505220606 13 174 0.0 0.0 0.00 0.00 0.00 68 1003.0
20260505220406 13 174 0.0 0.0 0.00 0.00 0.00 68 1003.0
20260505220207 13 174 0.0 0.0 0.00 0.00 0.00 67 1003.0
20260505220019 13 174 14.5 14.5 0.00 0.00 0.00 67 1003.0
20260505215806 13 162 0.0 0.0 0.00 0.00 0.00 66 1003.0
20260505215607 13 162 9.7 9.7 0.00 0.00 0.00 66 1003.0
20260505215406 14 162 0.0 0.0 0.00 0.00 0.00 66 1003.0
20260505215206 14 162 0.0 0.0 0.00 0.00 0.00 65 1003.0
20260505215011 14 162 8.0 8.0 0.00 0.00 0.00 65 1003.0
20260505214807 14 144 0.0 0.0 0.00 0.00 0.00 65 1003.0
20260505214606 14 144 0.0 0.0 0.00 0.00 0.00 65 1003.0
20260505214406 14 138 0.0 0.0 0.00 0.00 0.00 65 1003.0
20260505214206 14 120 0.0 0.0 0.00 0.00 0.00 65 1003.0
20260505214011 14 162 0.0 0.0 0.00 0.00 0.00 65 1003.0
20260505213806 14 162 0.0 0.0 0.00 0.00 0.00 65 1003.0
20260505213606 14 144 0.0 0.0 0.00 0.00 0.00 64 1003.0
20260505213407 14 126 0.0 0.0 0.00 0.00 0.00 64 1003.0
20260505213207 14 180 8.0 8.0 0.00 0.00 0.00 64 1003.0
20260505213014 14 174 0.0 0.0 0.00 0.00 0.00 64 1003.0
20260505212807 14 204 8.0 8.0 0.00 0.00 0.00 64 1003.0
20260505212605 14 192 0.0 0.0 0.00 0.00 0.00 63 1003.0
20260505212406 14 108 8.0 8.0 0.00 0.00 0.00 63 1003.0
20260505212206 14 150 0.0 0.0 0.00 0.00 0.00 63 1003.0
20260505212011 15 114 9.7 9.7 0.00 0.00 0.00 63 1003.0
20260505211807 15 108 11.3 11.3 0.00 0.00 0.00 63 1003.0
20260505211043 14 83 11.3 11.3 0.00 0.00 0.00 62 1003.0
20260505210844 14 198 0.0 0.0 0.00 0.00 0.00 62 1003.0
20260505210139 14 138 8.0 8.0 0.00 0.00 0.00 63 1003.0
20260505205807 15 144 0.0 0.0 0.00 0.00 0.00 62 1003.0
20260505205607 15 100 8.0 8.0 0.00 0.00 0.00 62 1003.0
20260505205207 15 108 11.3 11.3 0.00 0.00 0.00 62 1003.0
20260505205031 15 42 0.0 0.0 0.00 0.00 0.00 62 1003.0
20260505204820 15 359 11.3 11.3 0.00 0.00 0.00 61 1003.0
20260505204624 15 192 14.5 14.5 0.00 0.00 0.00 61 1003.0
20260505204407 15 126 9.7 9.7 0.00 0.00 0.00 61 1003.0
20260505204012 15 114 14.5 14.5 0.00 0.00 0.00 61 1003.0
20260505203806 15 120 9.7 9.7 0.00 0.00 0.00 61 1003.0
20260505203610 15 120 9.7 9.7 0.00 0.00 0.00 61 1003.0
20260505203209 15 150 9.7 9.7 0.00 0.00 0.00 60 1003.0
20260505203019 15 90 9.7 9.7 0.00 0.00 0.00 60 1003.0
20260505202807 15 114 12.9 12.9 0.00 0.00 0.00 60 1003.0
20260505202607 15 120 12.9 12.9 0.00 0.00 0.00 60 1003.0
20260505202406 15 108 11.3 11.3 0.00 0.00 0.00 60 1003.0
20260505202207 15 168 8.0 8.0 0.00 0.00 0.00 60 1003.0
20260505202013 15 138 9.7 9.7 0.00 0.00 0.00 60 1002.0
20260505201807 15 162 12.9 12.9 0.00 0.00 0.00 60 1002.0
20260505201606 15 108 11.3 11.3 0.00 0.00 0.00 60 1002.0
20260505201406 15 114 11.3 11.3 0.00 0.00 0.00 60 1003.0
20260505201217 15 83 0.0 0.0 0.00 0.00 0.00 59 1003.0
20260505201011 15 185 9.7 9.7 0.00 0.00 0.00 59 1003.0
20260505200806 15 102 9.7 9.7 0.00 0.00 0.00 59 1003.0
20260505200606 15 114 11.3 11.3 0.00 0.00 0.00 59 1003.0
20260505200416 15 120 0.0 0.0 0.00 0.00 0.00 59 1003.0
20260505200206 15 120 11.3 11.3 0.00 0.00 0.00 58 1003.0
20260505200020 16 95 12.9 12.9 0.00 0.00 0.00 58 1003.0
20260505195809 16 96 0.0 0.0 0.00 0.00 0.00 58 1003.0
20260505195406 16 108 12.9 12.9 0.00 0.00 0.00 58 1003.0
20260505195208 16 126 11.3 11.3 0.00 0.00 0.00 58 1003.0
20260505195013 16 82 0.0 0.0 0.00 0.00 0.00 58 1003.0
20260505194807 16 144 8.0 8.0 0.00 0.00 0.00 58 1003.0
20260505194609 16 95 11.3 11.3 0.00 0.00 0.00 58 1003.0
20260505194407 16 114 11.3 11.3 0.00 0.00 0.00 58 1003.0
20260505194219 16 150 12.9 12.9 0.00 0.00 0.00 58 1003.0
20260505193806 16 126 8.0 8.0 0.00 0.00 0.00 57 1002.0
20260505193612 16 126 11.3 11.3 0.00 0.00 0.00 57 1002.0
20260505193410 16 93 24.1 27.4 0.00 0.00 0.00 57 1003.0
20260505193022 16 100 11.3 11.3 0.00 0.00 0.00 57 1003.0
20260505192806 16 102 12.9 12.9 0.00 0.00 0.00 57 1003.0
20260505192607 16 102 8.0 8.0 0.00 0.00 0.00 57 1003.0
20260505192409 16 108 9.7 9.7 0.00 0.00 0.00 56 1002.0
20260505192206 16 102 0.0 0.0 0.00 0.00 0.00 56 1002.0
20260505192023 16 108 8.0 8.0 0.00 0.00 0.00 56 1002.0
20260505191605 16 156 12.9 12.9 0.00 0.00 0.00 56 1002.0
20260505191406 16 150 9.7 9.7 0.00 0.00 0.00 56 1003.0
20260505191208 16 138 9.7 9.7 0.00 0.00 0.00 56 1003.0
20260505190807 16 151 8.0 8.0 0.00 0.00 0.00 56 1003.0
20260505190609 16 150 0.0 0.0 0.00 0.00 0.00 55 1003.0
20260505190406 16 162 0.0 0.0 0.00 0.00 0.00 55 1003.0
20260505190021 17 93 25.7 29.0 0.00 0.00 0.00 55 1003.0
20260505185807 17 150 9.7 9.7 0.00 0.00 0.00 55 1003.0
20260505185606 17 120 8.0 8.0 0.00 0.00 0.00 55 1003.0
20260505185406 17 102 8.0 8.0 0.00 0.00 0.00 55 1003.0
20260505185206 17 120 0.0 0.0 0.00 0.00 0.00 55 1003.0
20260505184807 17 150 8.0 8.0 0.00 0.00 0.00 54 1003.0
20260505184407 17 120 11.3 11.3 0.00 0.00 0.00 53 1002.0
20260505184207 17 101 9.7 9.7 0.00 0.00 0.00 53 1002.0
20260505184011 17 114 0.0 0.0 0.00 0.00 0.00 52 1003.0
20260505183807 17 139 12.9 12.9 0.00 0.00 0.00 52 1003.0
20260505183407 18 150 8.0 8.0 0.00 0.00 0.00 51 1002.0
20260505183207 18 126 9.7 9.7 0.00 0.00 0.00 51 1002.0
20260505182807 18 168 8.0 8.0 0.00 0.00 0.00 51 1002.0
20260505182605 18 132 8.0 8.0 0.00 0.00 0.00 50 1002.0
20260505182407 18 162 11.3 11.3 0.00 0.00 0.00 50 1002.0
20260505182207 18 132 12.9 12.9 0.00 0.00 0.00 50 1002.0
20260505181806 18 145 11.3 11.3 0.00 0.00 0.00 49 1003.0
20260505181407 18 116 9.7 9.7 0.00 0.00 0.00 49 1003.0
20260505181207 18 216 8.0 8.0 0.00 0.00 0.00 50 1003.0
20260505180807 18 97 12.9 12.9 0.00 0.00 0.00 49 1002.0
20260505180606 19 150 12.9 12.9 0.00 0.00 0.00 48 1002.0
20260505180019 19 108 11.3 11.3 0.00 0.00 0.00 48 1002.0
20260505175806 19 180 14.5 14.5 0.00 0.00 0.00 48 1002.0
20260505175606 19 63 0.0 0.0 0.00 0.00 0.00 48 1002.0
20260505175407 19 156 14.5 14.5 0.00 0.00 0.00 47 1002.0
20260505175207 19 144 12.9 12.9 0.00 0.00 0.00 47 1002.0
20260505175012 20 120 12.9 12.9 0.00 0.00 0.00 47 1002.0
20260505174606 20 138 14.5 14.5 0.00 0.00 0.00 46 1002.0
20260505174206 20 132 24.1 24.1 0.00 0.00 0.00 46 1002.0
20260505174010 20 145 9.7 9.7 0.00 0.00 0.00 46 1002.0
20260505173806 20 156 0.0 0.0 0.00 0.00 0.00 46 1002.0
20260505173647 20 102 0.0 0.0 0.00 0.00 0.00 45 1002.0
20260505173016 20 144 12.9 12.9 0.00 0.00 0.00 44 1002.0
20260505172806 20 144 11.3 11.3 0.00 0.00 0.00 44 1002.0
20260505172606 20 96 9.7 9.7 0.00 0.00 0.00 44 1002.0
20260505172407 21 156 14.5 14.5 0.00 0.00 0.00 44 1002.0
20260505172013 21 120 14.5 14.5 0.00 0.00 0.00 43 1002.0
20260505171808 21 132 0.0 0.0 0.00 0.00 0.00 43 1002.0
20260505171406 21 184 8.0 8.0 0.00 0.00 0.00 42 1002.0
20260505171206 21 144 9.7 9.7 0.00 0.00 0.00 42 1002.0
20260505171014 21 162 12.9 12.9 0.00 0.00 0.00 41 1002.0
20260505170607 22 162 9.7 9.7 0.00 0.00 0.00 41 1002.0
20260505170207 22 114 30.6 33.8 0.00 0.00 0.00 40 1002.0
20260505170019 22 222 12.9 12.9 0.00 0.00 0.00 40 1002.0
20260505165808 22 150 11.3 11.3 0.00 0.00 0.00 40 1002.0
20260505165606 22 173 11.3 11.3 0.00 0.00 0.00 40 1002.0